• In Italy
  • List of Countries
  • For 7 days
  • Water Temperature
  • Satellite Maps
  • Weather Map
  • Weather Widgets
  • user-avatar
    Login

    Hourly Weather Asadabad

    Today, 21 February, Wednesday

    Time Temperature Precipitation Wind Pressure Humidity
    00:00 +12°C° 0.2 mm 2 mps 657 mmHg 61%
    01:00 +10°C° 0.2 mm 2 mps 657 mmHg 62%
    02:00 +10°C° 0.2 mm 2 mps 657 mmHg 63%
    03:00 +9°C° 0.1 mm 2 mps 656 mmHg 63%
    04:00 +9°C° 0.1 mm 2 mps 656 mmHg 63%
    05:00 +9°C° 0.1 mm 2 mps 656 mmHg 64%
    06:00 +9°C° 0.1 mm 2 mps 657 mmHg 62%
    07:00 +9°C° 0.1 mm 2 mps 657 mmHg 61%
    08:00 +10°C° 0.1 mm 2 mps 657 mmHg 59%
    09:00 +12°C° 0.1 mm 2 mps 658 mmHg 56%
    10:00 +14°C° 0.1 mm 2 mps 658 mmHg 53%
    11:00 +15°C° 0 mm 1 mps 658 mmHg 51%
    12:00 +15°C° 0.1 mm 1 mps 658 mmHg 50%
    13:00 +16°C° 0.1 mm 2 mps 658 mmHg 49%
    14:00 +16°C° 0.1 mm 2 mps 657 mmHg 48%
    15:00 +16°C° 0.2 mm 2 mps 657 mmHg 48%
    16:00 +16°C° 0.2 mm 2 mps 657 mmHg 49%
    17:00 +15°C° 0 mm 1 mps 657 mmHg 50%
    18:00 +14°C° 0.1 mm 2 mps 657 mmHg 52%
    19:00 +13°C° 0.1 mm 2 mps 657 mmHg 54%
    20:00 +12°C° 0.1 mm 2 mps 657 mmHg 56%
    21:00 +10°C° 0 mm 2 mps 657 mmHg 54%
    22:00 +10°C° 0 mm 2 mps 657 mmHg 52%
    23:00 +9°C° 0 mm 3 mps 657 mmHg 50%

    Tomorrow, 22 February, Thursday

    Time Temperature Precipitation Wind Pressure Humidity
    00:00 +9°C° 0 mm 3 mps 657 mmHg 49%
    01:00 +9°C° 0 mm 3 mps 657 mmHg 48%
    02:00 +8°C° 0 mm 3 mps 657 mmHg 47%
    03:00 +8°C° 0 mm 3 mps 656 mmHg 46%
    04:00 +8°C° 0 mm 3 mps 656 mmHg 45%
    05:00 +7°C° 0 mm 3 mps 656 mmHg 44%
    06:00 +8°C° 0 mm 3 mps 656 mmHg 42%
    07:00 +8°C° 0 mm 3 mps 656 mmHg 41%
    08:00 +9°C° 0 mm 3 mps 656 mmHg 40%
    09:00 +12°C° 0 mm 2 mps 656 mmHg 37%
    10:00 +13°C° 0 mm 2 mps 657 mmHg 34%
    11:00 +15°C° 0 mm 1 mps 657 mmHg 31%
    12:00 +16°C° 0 mm 1 mps 656 mmHg 31%
    13:00 +16°C° 0 mm 2 mps 656 mmHg 32%
    14:00 +17°C° 0 mm 2 mps 656 mmHg 33%
    15:00 +16°C° 0 mm 2 mps 656 mmHg 34%
    16:00 +16°C° 0 mm 2 mps 656 mmHg 34%
    17:00 +16°C° 0 mm 1 mps 656 mmHg 35%
    18:00 +14°C° 0 mm 2 mps 656 mmHg 38%
    19:00 +13°C° 0 mm 2 mps 656 mmHg 41%
    20:00 +12°C° 0 mm 2 mps 657 mmHg 43%
    21:00 +10°C° 0 mm 2 mps 657 mmHg 44%
    22:00 +10°C° 0 mm 2 mps 657 mmHg 44%
    23:00 +9°C° 0 mm 3 mps 657 mmHg 45%

    Day after tomorrow, 23 February, Friday

    Time Temperature Precipitation Wind Pressure Humidity
    00:00 +9°C° 0 mm 3 mps 657 mmHg 45%
    01:00 +8°C° 0 mm 3 mps 657 mmHg 44%
    02:00 +8°C° 0 mm 3 mps 657 mmHg 44%
    03:00 +8°C° 0 mm 3 mps 657 mmHg 43%
    04:00 +7°C° 0 mm 3 mps 657 mmHg 42%
    05:00 +7°C° 0 mm 3 mps 656 mmHg 41%
    06:00 +8°C° 0 mm 3 mps 657 mmHg 40%
    07:00 +8°C° 0 mm 3 mps 657 mmHg 39%
    08:00 +9°C° 0 mm 3 mps 657 mmHg 37%
    09:00 +12°C° 0 mm 2 mps 657 mmHg 34%
    10:00 +14°C° 0 mm 2 mps 657 mmHg 31%
    11:00 +15°C° 0 mm 1 mps 658 mmHg 28%
    12:00 +16°C° 0 mm 1 mps 657 mmHg 28%
    13:00 +16°C° 0 mm 1 mps 657 mmHg 28%
    14:00 +18°C° 0 mm 1 mps 656 mmHg 29%
    15:00 +16°C° 0 mm 1 mps 656 mmHg 30%
    16:00 +16°C° 0 mm 1 mps 656 mmHg 31%
    17:00 +15°C° 0 mm 1 mps 656 mmHg 33%
    18:00 +15°C° 0 mm 2 mps 656 mmHg 35%
    19:00 +14°C° 0 mm 2 mps 656 mmHg 37%
    20:00 +13°C° 0 mm 2 mps 657 mmHg 39%
    21:00 +13°C° 0.1 mm 2 mps 657 mmHg 41%
    22:00 +12°C° 0.1 mm 2 mps 657 mmHg 43%
    23:00 +12°C° 0.1 mm 2 mps 657 mmHg 46%

    24 February, Saturday

    Time Temperature Precipitation Wind Pressure Humidity
    00:00 +10°C° 0.2 mm 2 mps 657 mmHg 49%
    01:00 +10°C° 0.2 mm 2 mps 657 mmHg 51%
    02:00 +10°C° 0.2 mm 2 mps 657 mmHg 54%
    03:00 +9°C° 0.1 mm 2 mps 657 mmHg 56%
    04:00 +10°C° 0.1 mm 1 mps 656 mmHg 58%
    05:00 +10°C° 0.1 mm 1 mps 656 mmHg 59%
    06:00 +10°C° 0 mm 1 mps 657 mmHg 58%
    07:00 +10°C° 0 mm 1 mps 657 mmHg 58%
    08:00 +10°C° 0 mm 1 mps 657 mmHg 57%
    09:00 +11°C° 0.1 mm 1 mps 658 mmHg 56%
    10:00 +11°C° 0.1 mm 1 mps 658 mmHg 56%
    11:00 +11°C° 0.1 mm 1 mps 658 mmHg 56%
    12:00 +12°C° 0.1 mm 1 mps 658 mmHg 56%
    13:00 +12°C° 0.1 mm 1 mps 657 mmHg 56%
    14:00 +13°C° 0.1 mm 1 mps 657 mmHg 56%
    15:00 +13°C° 0 mm 2 mps 657 mmHg 56%
    16:00 +13°C° 0 mm 2 mps 657 mmHg 56%
    17:00 +13°C° 0 mm 2 mps 657 mmHg 57%
    18:00 +12°C° 0 mm 1 mps 657 mmHg 61%
    19:00 +11°C° 0 mm 1 mps 658 mmHg 66%
    20:00 +9°C° 0 mm 0 mps 658 mmHg 70%
    21:00 +10°C° 0 mm 1 mps 659 mmHg 69%
    22:00 +10°C° 0 mm 1 mps 659 mmHg 68%
    23:00 +10°C° 0 mm 1 mps 659 mmHg 67%

    25 February, Sunday

    Time Temperature Precipitation Wind Pressure Humidity
    00:00 +10°C° 0 mm 1 mps 659 mmHg 66%
    01:00 +9°C° 0 mm 1 mps 659 mmHg 65%
    02:00 +8°C° 0 mm 2 mps 659 mmHg 64%
    03:00 +8°C° 0 mm 2 mps 659 mmHg 62%
    04:00 +8°C° 0 mm 2 mps 658 mmHg 61%
    05:00 +7°C° 0 mm 2 mps 658 mmHg 60%
    06:00 +8°C° 0 mm 2 mps 659 mmHg 57%
    07:00 +8°C° 0 mm 2 mps 660 mmHg 54%
    08:00 +9°C° 0 mm 2 mps 660 mmHg 51%
    09:00 +12°C° 0 mm 2 mps 661 mmHg 47%
    10:00 +13°C° 0 mm 2 mps 661 mmHg 43%
    11:00 +15°C° 0 mm 1 mps 661 mmHg 40%
    12:00 +15°C° 0 mm 1 mps 661 mmHg 40%
    13:00 +16°C° 0 mm 1 mps 661 mmHg 39%
    14:00 +16°C° 0 mm 2 mps 661 mmHg 39%
    15:00 +16°C° 0 mm 1 mps 661 mmHg 40%
    16:00 +16°C° 0 mm 1 mps 661 mmHg 42%
    17:00 +15°C° 0 mm 1 mps 661 mmHg 43%
    18:00 +15°C° 0 mm 1 mps 661 mmHg 45%
    19:00 +14°C° 0 mm 2 mps 661 mmHg 46%
    20:00 +13°C° 0 mm 2 mps 661 mmHg 48%
    21:00 +13°C° 0 mm 2 mps 661 mmHg 47%
    22:00 +12°C° 0 mm 2 mps 661 mmHg 46%
    23:00 +12°C° 0 mm 2 mps 661 mmHg 46%

    26 February, Monday

    Time Temperature Precipitation Wind Pressure Humidity
    00:00 +12°C° 0 mm 2 mps 661 mmHg 45%
    01:00 +11°C° 0 mm 3 mps 660 mmHg 44%
    02:00 +11°C° 0 mm 3 mps 660 mmHg 43%
    03:00 +10°C° 0 mm 3 mps 659 mmHg 43%
    04:00 +10°C° 0 mm 3 mps 659 mmHg 43%
    05:00 +10°C° 0 mm 3 mps 659 mmHg 43%
    06:00 +11°C° 0 mm 3 mps 659 mmHg 43%
    07:00 +11°C° 0 mm 3 mps 659 mmHg 42%
    08:00 +12°C° 0 mm 3 mps 659 mmHg 42%
    09:00 +13°C° 0 mm 3 mps 660 mmHg 39%
    10:00 +15°C° 0 mm 2 mps 660 mmHg 37%
    11:00 +17°C° 0 mm 2 mps 660 mmHg 35%
    12:00 +17°C° 0.1 mm 2 mps 660 mmHg 36%
    13:00 +17°C° 0.1 mm 2 mps 659 mmHg 38%
    14:00 +17°C° 0.1 mm 2 mps 659 mmHg 40%
    15:00 +17°C° 0.2 mm 2 mps 658 mmHg 42%
    16:00 +16°C° 0.2 mm 2 mps 658 mmHg 45%
    17:00 +16°C° 0.2 mm 3 mps 658 mmHg 47%
    18:00 +14°C° 0.1 mm 3 mps 658 mmHg 50%
    19:00 +14°C° 0.1 mm 3 mps 658 mmHg 53%
    20:00 +13°C° 0.1 mm 3 mps 658 mmHg 56%
    21:00 +13°C° 0.2 mm 3 mps 658 mmHg 57%
    22:00 +12°C° 0.2 mm 3 mps 658 mmHg 58%
    23:00 +12°C° 0.2 mm 3 mps 658 mmHg 60%
    Show more